Change the Weather History Date:

Monday, November 19, 2012

  Actual Average Record
Temperature  
Mean Temperature 68 °F -  
Max Temperature 75 °F 71 °F 84 °F (2007)
Min Temperature 61 °F 57 °F 41 °F (2000)
Cooling Degree Days 3    
Growing Degree Days 18 (Base 50)    
Moisture  
Dew Point 61 °F    
Average Humidity 78    
Maximum Humidity 100    
Minimum Humidity 54    
Precipitation  
Precipitation 0.00 in - - ()
Sea Level Pressure  
Sea Level Pressure 30.19 in    
Wind  
Wind Speed 6 mph (ESE)    
Max Wind Speed 12 mph    
Max Gust Speed -    
Visibility 10 miles    
Events      
Averages and records for this station are not official NWS values.
T = Trace of Precipitation, MM = Missing Value Source: NWS Daily Summary

Daily Weather History Graph

Daily Weather History Graph

Search for Another Location

Airport or City:

Trip Planner

Search our weather history database for the weather conditions in past years. The results will help you decide how hot, cold, wet, or windy it might be!

Date:

Astronomy

Nov. 19, 2012 Rise Set
Actual Time 6:53 AM CST 5:35 PM CST
Civil Twilight 6:28 AM CST 6:00 PM CST
Nautical Twilight 6:00 AM CST 6:28 PM CST
Astronomical Twilight 5:32 AM CST 6:56 PM CST
Moon 12:08 PM CST (11/19) 11:49 PM CST (11/19)
Length of Visible Light 11h 31m
Length of Day
10h 41m
Waxing Crescent, 41% of the Moon is Illuminated
Nov 19
Waxing Crescent
Nov 20
First Quarter
Nov 28
Full
Dec 6
Last Quarter
Dec 13
New

Hourly Weather History & Observations

Time (CST) Temp. Dew Point Humidity Pressure Visibility Wind Dir Wind Speed Gust Speed Precip Events Conditions
12:56 AM 64.0 °F 61.0 °F 90% 30.20 in 10.0 mi ESE 6.9 mph - N/A   Clear
1:56 AM 64.9 °F 61.0 °F 87% 30.20 in 10.0 mi SE 5.8 mph - N/A   Clear
2:56 AM 62.1 °F 60.1 °F 93% 30.19 in 10.0 mi ESE 3.5 mph - N/A   Clear
3:56 AM 62.1 °F 61.0 °F 96% 30.18 in 10.0 mi SE 4.6 mph - N/A   Clear
4:56 AM 63.0 °F 61.0 °F 93% 30.18 in 10.0 mi Calm Calm - N/A   Clear
5:56 AM 61.0 °F 60.1 °F 97% 30.19 in 10.0 mi ESE 3.5 mph - N/A   Partly Cloudy
6:56 AM 61.0 °F 60.1 °F 97% 30.20 in 10.0 mi ESE 3.5 mph - N/A   Scattered Clouds
7:56 AM 70.5 °F 61.7 °F 74% 30.23 in 10.0 mi Calm Calm - N/A   Scattered Clouds
8:56 AM 72.0 °F 61.0 °F 68% 30.23 in 10.0 mi ESE 5.8 mph - N/A   Scattered Clouds
9:56 AM 75.0 °F 59.0 °F 57% 30.24 in 10.0 mi ESE 8.1 mph - N/A   Scattered Clouds
10:56 AM 75.0 °F 57.9 °F 55% 30.24 in 10.0 mi ESE 8.1 mph - N/A   Scattered Clouds
11:56 AM 75.9 °F 57.9 °F 54% 30.22 in 10.0 mi ESE 9.2 mph - N/A   Scattered Clouds
12:56 PM 75.9 °F 59.0 °F 56% 30.20 in 10.0 mi East 10.4 mph - N/A   Mostly Cloudy
1:56 PM 75.9 °F 59.0 °F 56% 30.17 in 10.0 mi ESE 9.2 mph - N/A   Mostly Cloudy
2:56 PM 75.0 °F 59.0 °F 57% 30.15 in 10.0 mi ESE 11.5 mph - N/A   Mostly Cloudy
3:56 PM 73.0 °F 59.0 °F 61% 30.15 in 10.0 mi ESE 11.5 mph - N/A   Mostly Cloudy
4:56 PM 72.0 °F 59.0 °F 64% 30.15 in 10.0 mi ESE 10.4 mph - N/A   Mostly Cloudy
5:56 PM 69.1 °F 61.0 °F 75% 30.16 in 10.0 mi ESE 6.9 mph - N/A   Overcast
6:56 PM 68.0 °F 63.0 °F 84% 30.18 in 10.0 mi East 4.6 mph - N/A   Mostly Cloudy
7:56 PM 68.0 °F 64.0 °F 87% 30.19 in 10.0 mi East 4.6 mph - N/A   Mostly Cloudy
8:56 PM 66.9 °F 64.0 °F 90% 30.19 in 10.0 mi East 4.6 mph - N/A   Overcast
9:56 PM 66.0 °F 64.0 °F 93% 30.19 in 10.0 mi Calm Calm - N/A   Mostly Cloudy
10:56 PM 66.0 °F 64.0 °F 93% 30.17 in 10.0 mi ESE 4.6 mph - N/A   Mostly Cloudy
11:56 PM 64.9 °F 64.9 °F 100% 30.17 in 10.0 mi Calm Calm - N/A   Clear